Theta_e
319 319 321 319 318 318 317 317 318 317 317 319 317 317 321 321 319 323 324 321 320 318 315 313 312 311 311 311 312 312 312 312 312 312 311 311 310 310 309 309 309 309 309 309 308 308 308 308 308 308 308 308 308 308 308 308 308 310 310 311 311 311 311 311 311 311 311 311 311 311 311 311 313 316 319 321 322 323 324 324 324 325 324 325 326 327 327
319 319 321 320 319 321 322 320 319 320 320 321 322 323 325 323 322 324 323 321 320 317 314 312 311 310 310 310 310 311 312 312 312 311 311 310 310 310 310 309 308 308 308 308 308 308 308 307 307 308 308 307 307 307 307 307 307 309 309 310 310 310 310 310 310 310 310 310 310 310 310 310 311 312 315 318 320 321 322 323 324 324 324 324 325 326 326
321 321 320 320 319 322 323 323 322 323 324 325 326 326 326 324 324 323 320 319 316 314 312 310 309 309 309 309 310 310 311 311 311 311 311 310 310 310 310 309 308 307 307 307 307 307 307 307 307 308 308 307 307 307 307 307 307 307 309 309 309 309 309 309 309 309 309 309 310 309 309 309 309 310 312 314 317 318 320 321 323 324 323 323 324 325 325
323 322 320 320 320 321 321 321 322 323 324 324 324 324 325 324 323 320 317 315 312 310 309 309 308 309 308 309 309 310 310 310 310 310 310 309 309 309 308 309 308 307 306 307 307 306 306 306 306 307 307 307 306 307 307 306 306 307 308 308 308 308 308 308 308 308 308 308 308 309 309 309 309 308 309 311 313 315 316 318 319 321 322 322 322 323 323
323 323 321 320 319 320 320 318 318 320 321 322 323 322 322 321 320 319 318 314 310 309 309 308 308 308 308 308 309 309 309 309 309 309 308 308 308 307 307 307 307 306 306 306 306 305 305 305 306 306 307 306 306 306 306 306 306 306 307 307 307 307 307 307 307 307 307 307 308 308 308 308 308 308 307 308 310 311 312 313 315 316 318 319 320 321 321
321 322 321 321 320 320 318 315 315 318 320 321 321 320 319 318 317 316 315 312 308 309 309 308 307 308 307 307 307 307 308 308 308 308 307 307 307 307 306 306 305 305 305 305 305 304 304 305 305 305 306 306 306 306 306 305 305 306 306 306 306 306 306 306 306 306 306 306 307 307 307 307 307 307 307 307 307 307 308 309 311 313 314 315 316 318 319
321 321 321 323 323 319 315 314 314 316 318 317 317 316 316 316 314 313 311 309 309 309 309 307 307 306 306 306 306 306 306 306 306 306 306 306 306 306 306 305 305 304 304 304 304 304 304 304 305 305 305 305 305 305 305 305 305 305 305 305 305 305 305 305 305 305 305 305 306 306 306 306 306 306 306 306 306 306 306 307 308 309 310 311 312 313 315
320 320 321 322 320 315 313 314 315 315 315 315 315 314 314 314 313 311 310 309 309 309 307 306 306 305 305 305 305 305 305 305 305 305 305 305 305 305 305 305 305 305 305 304 303 303 303 304 304 304 305 305 305 305 305 305 305 305 305 305 304 305 305 305 305 305 305 305 305 305 305 305 306 305 305 306 305 305 305 306 306 306 307 308 309 310 311
319 320 319 317 316 315 315 314 314 315 316 316 316 314 311 312 312 311 309 308 308 307 306 305 305 305 304 304 304 304 305 305 305 305 305 305 304 304 304 304 304 305 304 303 303 303 303 304 304 304 304 305 305 305 304 304 304 304 304 304 304 304 304 304 304 304 304 304 304 304 305 305 305 305 305 305 305 305 305 305 305 305 305 306 307 308 308
318 319 318 317 318 319 316 314 314 315 316 317 316 314 311 311 311 310 308 307 307 306 306 305 305 305 305 304 303 304 304 304 304 304 304 304 304 304 304 304 304 303 303 303 303 303 303 303 304 304 304 304 304 304 304 304 304 304 304 303 303 303 303 303 303 304 304 304 304 304 304 304 304 304 304 304 304 304 304 305 305 304 304 305 305 305 306
317 318 318 319 319 319 316 315 315 315 316 316 316 316 314 310 310 310 308 307 307 306 306 305 306 307 306 304 303 303 304 304 304 304 304 304 304 303 303 303 303 303 302 302 302 303 303 303 303 303 303 304 304 304 304 303 303 303 303 303 303 303 303 303 303 303 303 303 303 303 303 303 303 303 303 303 303 303 304 304 304 304 304 304 304 304 304
318 318 317 317 317 316 315 315 315 315 315 316 317 318 315 310 309 309 308 308 308 307 306 306 307 308 307 304 303 303 304 304 304 304 304 304 303 302 302 302 302 302 302 302 302 302 302 302 302 302 303 303 303 303 303 303 303 303 302 302 302 302 302 302 302 303 303 303 303 303 303 303 303 303 303 303 303 303 303 303 303 303 303 303 303 303 303
317 317 316 315 315 315 314 315 314 314 315 316 317 317 314 310 309 309 308 308 308 307 307 308 308 308 307 304 304 304 304 304 304 304 303 303 302 301 301 301 301 301 301 302 302 301 302 302 302 302 302 303 302 303 303 302 302 302 302 302 302 302 302 302 302 302 302 302 302 302 302 302 302 302 302 302 302 302 302 302 302 302 301 301 302 302 302
316 316 315 315 315 314 314 314 314 314 315 315 315 314 311 309 309 309 308 308 308 308 308 308 307 306 305 304 304 304 304 304 303 303 303 302 301 300 300 300 301 301 301 301 302 302 302 302 302 302 302 302 302 302 302 302 301 301 301 301 301 301 301 301 301 301 302 302 302 301 301 301 301 301 301 301 301 302 302 302 302 301 301 301 301 301 301
315 315 315 315 315 313 313 313 313 313 314 314 313 312 311 310 309 308 307 307 307 307 307 306 306 305 305 304 304 304 304 303 303 303 303 302 300 300 299 299 300 301 301 301 302 302 302 302 302 302 302 302 302 302 302 301 301 301 301 301 301 301 301 301 301 301 301 301 301 301 301 301 301 301 300 300 300 301 301 301 301 301 301 300 300 300 300
315 314 314 314 314 313 313 313 313 312 313 312 312 311 311 310 309 308 307 307 307 307 306 305 305 305 304 304 304 304 304 304 303 303 302 300 299 299 299 298 299 300 301 302 301 301 302 302 302 302 302 302 302 301 301 301 301 300 300 300 300 300 300 300 300 300 301 301 301 301 300 300 300 300 300 299 299 299 300 300 300 300 300 300 300 300 299
312 313 312 312 313 312 312 313 312 312 312 312 311 311 310 310 309 308 308 307 306 306 306 305 305 305 304 304 304 304 303 303 302 301 300 300 299 299 299 299 299 300 301 301 301 301 301 301 301 301 301 302 301 301 300 300 300 300 300 300 300 300 300 300 300 300 300 301 300 300 300 300 300 300 299 299 298 298 298 299 299 299 299 299 299 299 299
309 309 309 311 312 312 312 312 311 311 312 311 311 310 310 309 309 308 308 307 306 306 305 305 305 305 304 304 304 303 303 302 301 300 300 299 299 299 300 300 300 300 300 300 300 300 300 300 300 300 300 301 301 301 300 300 300 300 300 300 300 300 300 299 300 300 300 300 300 300 300 300 299 299 299 299 298 298 298 298 298 298 298 298 299 299 299
311 310 309 310 311 311 311 311 311 311 311 310 310 310 309 309 308 308 307 307 306 306 305 305 305 305 304 304 303 303 302 301 300 300 299 299 299 300 300 300 300 300 300 299 299 300 299 299 299 299 299 300 300 301 300 300 300 300 300 300 300 300 299 299 299 299 299 300 300 300 300 300 299 299 299 299 298 298 297 297 297 297 297 297 298 299 299
311 309 308 309 310 310 309 310 309 310 310 310 309 309 308 308 308 307 307 306 306 306 305 305 304 304 304 303 303 302 302 301 300 300 299 299 299 300 300 300 300 300 299 299 299 299 299 299 299 299 298 299 300 301 300 300 300 300 300 300 300 300 299 299 299 299 299 299 299 299 300 300 299 299 298 299 298 298 297 296 296 297 297 296 296 298 299
308 308 308 309 309 308 309 309 309 309 309 308 308 308 308 307 307 306 306 306 306 305 305 304 304 304 303 303 302 302 301 301 300 300 299 299 299 300 300 300 300 300 299 299 299 299 299 299 299 299 299 299 300 301 300 300 300 300 300 300 299 300 299 299 299 299 299 299 299 299 299 299 299 298 298 298 298 298 297 297 296 296 296 296 295 296 298
308 308 308 308 308 308 308 308 308 308 308 308 308 308 307 307 306 306 306 306 305 304 304 304 304 304 303 302 302 302 301 301 300 300 299 299 300 300 300 299 299 299 299 299 299 299 299 299 299 300 300 299 300 300 300 300 300 300 300 300 299 299 299 299 299 299 299 299 299 299 299 299 299 299 299 298 298 297 297 297 296 296 296 296 295 295 296
310 309 309 309 309 308 307 308 308 308 307 307 307 307 306 306 306 306 305 305 304 304 304 304 303 303 302 302 302 302 301 301 300 299 299 299 300 300 300 300 299 299 299 299 299 299 299 299 300 301 300 300 300 300 300 300 300 300 300 300 299 299 299 299 299 299 299 299 299 299 298 298 299 299 299 298 298 298 297 297 297 296 296 296 295 295 295
310 309 309 309 309 308 307 307 307 307 307 307 306 306 306 306 306 305 305 304 304 304 303 303 303 302 302 302 301 301 301 300 300 300 299 299 299 300 300 299 299 299 299 299 299 299 299 299 301 301 300 300 300 301 300 300 300 300 300 300 299 299 299 299 299 299 299 299 299 298 298 298 298 298 298 298 298 297 297 297 297 296 296 296 295 295 295
309 309 309 309 308 307 307 307 307 307 307 307 306 306 306 306 305 305 304 304 304 303 303 303 302 302 302 302 301 301 301 300 299 299 299 299 299 299 299 299 299 299 299 298 298 298 299 300 301 301 300 300 300 301 300 300 300 300 300 300 299 299 299 299 300 299 299 299 299 298 298 298 298 298 297 298 297 297 297 297 296 296 296 296 295 295 294
308 308 308 307 307 307 307 307 307 307 307 306 306 306 306 305 305 304 304 303 303 302 302 302 302 302 302 302 302 301 300 299 299 299 299 299 299 299 299 299 298 299 299 299 298 298 299 300 300 300 300 300 300 301 300 300 300 300 300 300 300 299 299 299 300 300 299 299 299 298 298 298 298 297 297 297 297 297 297 297 296 296 296 296 295 295 294
308 307 307 307 307 306 306 306 306 306 306 306 306 305 305 304 304 304 303 303 302 302 302 302 302 302 302 302 302 301 300 299 300 300 300 300 299 299 299 299 298 298 299 299 299 298 299 299 300 300 300 300 300 301 300 300 300 300 299 300 300 299 299 299 299 299 299 299 299 299 298 298 298 298 297 297 297 297 297 296 296 296 296 296 295 295 294
307 307 307 307 307 306 306 306 306 306 306 306 305 305 304 304 303 303 303 302 302 302 302 302 302 302 302 302 301 300 299 300 300 300 300 299 299 299 299 299 299 299 299 299 299 299 299 299 300 300 300 300 301 301 301 300 300 299 299 299 299 299 299 299 299 299 299 299 299 298 298 298 298 297 297 297 297 296 296 296 296 295 296 296 295 295 294
307 307 307 307 306 306 306 306 306 305 305 305 304 303 303 303 302 302 302 302 301 302 302 302 302 302 302 301 301 300 300 301 300 300 300 300 300 299 299 299 299 299 299 299 299 299 299 299 299 300 300 300 300 300 301 300 300 300 299 299 299 300 299 298 299 300 300 299 299 298 298 298 298 298 297 297 297 296 296 296 296 295 296 296 295 295 294
307 307 306 306 306 305 305 305 305 305 304 304 303 303 302 302 302 302 302 302 302 302 302 302 302 302 302 301 301 301 301 301 300 300 300 299 299 299 299 299 300 300 300 299 299 299 299 299 299 299 299 300 300 299 300 300 300 300 300 299 299 299 298 297 298 300 299 298 298 298 298 298 298 298 297 297 297 296 296 296 296 295 296 295 295 295 294
307 306 306 305 305 305 304 304 304 304 303 303 302 302 302 302 302 302 302 302 302 302 302 302 302 302 302 302 301 301 302 301 300 300 299 300 300 299 299 300 300 300 300 299 299 299 299 300 299 299 299 299 299 298 298 299 299 300 300 299 299 299 298 297 298 299 299 298 298 298 298 298 298 298 297 297 297 297 296 296 296 296 295 295 295 295 294
306 306 305 304 304 304 304 303 303 303 303 302 302 302 302 302 302 302 302 302 302 302 302 302 302 301 302 302 301 302 302 301 300 300 300 300 299 298 299 300 300 299 300 300 299 299 299 299 299 299 298 299 298 298 297 297 298 299 299 298 299 299 298 298 298 298 298 298 298 298 298 298 298 298 297 297 297 297 296 296 296 295 295 295 295 295 294
306 305 305 304 304 304 303 303 303 302 302 302 302 302 302 302 302 302 302 302 302 302 302 302 302 302 302 302 302 302 302 301 300 300 299 299 298 297 298 299 300 300 300 300 299 299 299 299 299 299 298 298 298 297 297 297 297 297 297 297 298 299 299 298 298 297 297 298 298 298 297 297 297 297 297 297 297 297 296 296 296 295 295 295 295 295 294
305 305 305 304 304 304 303 303 303 302 302 302 302 302 302 302 302 302 302 302 302 302 302 302 302 302 302 302 302 302 301 300 299 299 298 298 298 297 298 299 300 300 300 300 299 299 299 300 299 299 299 299 298 297 297 296 297 297 296 296 296 297 297 298 298 297 297 297 297 297 297 297 297 297 297 297 297 297 296 296 296 295 295 295 295 295 294
305 305 304 304 304 303 303 303 302 302 302 302 302 302 302 302 302 302 302 302 302 302 302 302 302 302 302 302 302 301 299 298 299 298 297 297 298 297 298 299 300 300 300 300 300 300 300 300 299 298 298 298 299 298 297 296 296 297 297 296 296 296 296 296 297 297 297 297 297 297 297 297 297 297 297 297 297 297 296 296 296 295 295 296 295 295 295
305 304 304 303 303 303 303 302 302 302 303 302 302 302 302 302 302 302 302 302 302 302 302 302 302 303 302 302 301 300 298 298 298 298 297 298 298 297 298 300 301 300 300 300 300 300 300 299 298 297 297 297 298 299 297 295 295 296 297 297 297 296 295 295 296 296 297 297 297 296 296 296 297 297 297 297 297 297 297 296 296 296 296 296 296 295 295
304 304 303 303 302 302 302 302 302 302 302 302 302 302 302 302 302 302 302 302 302 302 302 302 302 302 301 300 299 299 298 298 298 298 298 298 298 297 298 300 301 300 300 300 300 300 300 299 298 297 297 298 299 299 298 296 295 295 296 297 297 296 296 295 295 295 296 297 296 296 296 296 297 297 297 297 297 297 296 296 296 296 296 296 296 295 295
303 303 302 302 302 302 302 303 302 303 302 302 302 302 302 302 302 302 302 302 302 302 302 302 302 301 300 299 299 299 299 298 298 298 298 298 298 298 299 300 301 300 300 301 301 300 300 299 298 298 298 298 298 298 298 297 295 294 296 298 298 297 296 295 294 295 296 297 296 296 296 296 296 297 297 296 296 296 296 296 296 296 296 296 296 295 295
302 302 302 302 302 303 302 303 302 302 302 302 302 302 302 302 302 302 302 302 302 302 302 302 302 301 300 299 299 299 299 299 299 299 299 299 299 299 300 300 301 301 301 301 300 300 300 299 298 298 298 298 298 298 298 297 295 295 297 298 297 296 296 295 294 294 296 296 296 296 296 296 296 296 296 296 296 296 296 296 296 296 296 296 296 296 295
302 302 302 302 302 303 303 303 303 302 302 302 302 302 302 302 302 302 302 302 302 302 302 302 302 302 301 300 300 300 300 299 299 299 299 299 300 300 300 300 301 301 300 300 299 300 300 298 297 298 299 298 298 298 298 296 295 296 297 297 296 295 295 295 294 294 295 296 296 295 295 296 296 296 296 296 296 296 296 296 296 296 296 296 296 296 296
303 303 303 303 303 303 303 303 303 303 302 302 302 302 302 302 302 302 302 302 302 301 302 302 302 301 301 301 301 301 301 301 300 300 300 300 300 300 300 300 301 302 301 300 299 299 299 298 297 298 298 298 298 297 296 295 295 297 297 296 295 295 295 295 294 295 295 295 295 295 295 295 295 295 295 295 295 296 296 296 296 296 296 296 296 296 296
303 303 303 303 303 303 303 303 303 303 302 302 302 302 302 302 302 302 302 302 301 301 301 302 302 301 302 302 301 301 301 302 301 301 301 300 301 301 300 301 302 302 301 299 298 298 297 297 297 298 298 298 298 297 296 295 296 297 297 296 295 295 295 295 295 295 295 295 295 295 295 295 295 295 295 295 295 295 295 296 296 296 296 296 296 296 296
303 303 303 303 303 303 303 303 302 302 302 302 302 302 302 302 302 302 302 302 301 301 301 301 301 301 301 302 301 301 302 301 301 301 301 301 301 301 301 301 302 302 300 299 298 298 298 298 298 298 297 297 297 297 295 295 296 297 296 296 296 296 295 295 295 295 295 295 295 295 295 295 295 295 295 295 295 295 295 295 295 296 296 296 296 296 296
303 303 303 303 303 303 303 303 302 302 302 302 302 302 302 302 302 302 302 302 302 301 301 301 301 301 301 301 301 301 301 301 301 301 301 301 301 301 301 301 301 301 300 298 298 299 299 299 298 298 297 297 296 296 295 295 296 297 296 296 296 296 296 296 295 295 295 295 295 295 295 295 295 295 295 295 295 295 295 295 295 295 295 295 296 296 296
303 303 303 303 303 303 303 303 303 303 302 302 302 302 302 302 302 302 302 302 302 301 301 301 301 301 301 301 301 301 301 301 301 301 301 301 301 301 301 301 300 300 299 298 298 299 299 299 298 298 297 297 296 296 295 295 296 296 296 296 296 296 296 295 295 295 295 295 295 295 295 294 295 295 295 294 294 294 295 295 295 294 295 295 296 295 295
303 303 303 303 303 303 303 303 303 303 302 302 302 302 302 302 302 302 302 301 301 301 301 301 301 301 301 301 301 301 301 301 301 301 301 301 301 301 302 301 301 300 299 297 297 298 299 299 298 298 298 297 296 296 295 295 296 296 296 296 296 296 296 296 295 295 295 295 295 295 295 295 295 294 294 294 294 294 294 294 294 294 294 295 295 295 295
303 303 303 303 303 303 303 303 303 302 302 302 302 302 302 302 301 301 302 301 301 301 301 301 301 301 301 301 301 301 300 300 300 301 300 300 301 301 301 301 301 300 298 297 297 298 298 299 299 298 298 297 296 295 295 296 296 296 296 296 296 296 296 296 295 295 295 295 295 295 295 295 294 294 294 294 294 294 294 294 294 294 294 294 294 294 295
303 303 303 303 303 303 302 302 302 302 302 302 302 302 302 301 301 301 301 301 301 301 301 301 301 301 301 301 301 301 300 300 301 301 300 300 300 300 300 300 300 298 297 296 297 297 298 298 298 298 297 296 296 296 296 296 296 296 296 296 296 296 295 295 295 295 295 295 295 295 295 295 294 294 294 294 294 294 294 294 293 294 294 293 293 293 293
303 303 303 303 303 302 302 302 302 302 302 302 302 302 302 301 301 301 301 301 301 301 301 301 301 301 301 301 301 300 300 300 300 301 301 301 300 300 300 300 299 297 296 296 297 298 297 297 298 297 296 296 296 296 296 296 296 296 296 296 296 296 295 295 295 295 295 295 295 294 294 294 294 294 294 294 294 294 294 293 293 293 293 293 293 293 293
303 303 303 303 303 303 302 302 302 302 302 302 302 302 302 302 302 301 301 301 301 301 301 301 301 301 301 301 301 300 300 300 300 300 300 301 301 300 299 299 299 298 296 296 298 298 298 298 297 297 297 296 296 296 296 296 296 296 296 296 296 296 296 295 295 295 295 294 294 294 294 294 294 294 294 294 294 293 293 293 293 293 293 293 293 294 294
303 303 303 303 303 303 303 303 302 302 302 302 302 302 302 302 302 301 301 301 301 301 301 301 301 301 301 301 301 300 300 300 300 300 300 300 300 299 298 299 299 298 296 296 297 298 298 297 297 296 296 296 296 296 296 296 296 296 296 296 296 296 296 295 295 295 295 294 294 294 294 294 294 294 294 294 293 293 293 293 293 293 293 293 294 294 293
303 303 303 303 303 303 303 303 302 302 302 302 302 302 302 302 302 302 301 301 301 301 301 301 301 301 301 301 301 301 300 300 300 300 299 299 299 299 298 298 298 298 297 296 297 297 297 297 296 296 296 296 296 296 296 296 296 296 296 296 295 295 295 295 294 294 294 294 294 294 294 294 294 294 294 294 293 293 293 293 293 293 293 293 293 293 293
Wind_Speed
7 4 1 8 11 9 10 12 11 11 12 11 11 9 2 4 1 6 11 15 17 15 14 14 14 15 15 16 16 16 16 16 15 14 14 14 13 14 15 15 15 15 15 15 16 16 17 17 17 17 17 18 19 20 20 20 20 19 19 18 19 20 20 21 21 22 22 22 22 23 22 20 19 18 17 16 15 13 13 14 17 19 18 15 11 7 5
10 8 4 4 9 9 6 6 7 6 7 7 6 5 5 5 7 14 17 16 15 14 13 15 17 18 18 18 17 16 16 15 15 14 14 13 12 12 13 14 15 15 15 15 15 16 16 17 18 18 18 19 19 20 20 21 20 20 19 19 19 20 21 21 22 22 22 22 23 23 23 22 20 19 18 17 16 14 13 13 14 16 16 12 8 6 6
9 10 9 6 9 13 13 10 8 8 9 9 9 10 13 13 14 17 20 18 13 12 15 19 20 19 18 18 17 17 16 15 15 14 13 12 11 11 12 13 13 14 14 14 15 16 16 17 17 17 18 19 20 20 20 21 21 20 19 20 20 20 21 22 22 22 22 22 22 23 23 23 22 20 19 18 17 16 15 13 13 14 14 12 6 3 3
7 9 12 12 12 15 15 12 10 7 8 9 8 8 10 14 18 19 17 13 9 11 18 20 19 19 19 18 18 17 16 15 14 14 13 12 11 12 11 11 12 13 14 14 15 15 16 16 17 17 17 18 19 20 21 21 21 20 20 20 20 20 21 21 22 22 22 22 22 23 23 23 22 21 20 19 18 17 17 15 14 13 14 14 10 4 1
7 7 10 13 13 10 8 7 8 5 5 10 12 13 12 14 16 12 9 9 11 15 18 17 16 18 18 17 17 17 16 15 14 14 13 12 11 11 11 11 12 12 13 14 15 15 15 16 15 16 16 16 17 19 19 20 20 20 20 20 20 20 21 22 22 23 23 22 23 23 23 23 22 22 21 20 19 20 20 20 17 15 14 14 13 9 4
7 7 7 9 10 7 3 2 4 6 4 11 14 14 13 12 11 9 10 14 16 16 16 16 17 17 17 18 17 16 16 15 14 14 12 12 11 10 10 11 11 12 13 13 14 15 15 15 14 14 14 14 15 15 16 18 19 20 21 20 20 21 21 22 22 23 23 23 23 23 23 23 23 23 22 21 20 19 20 22 22 20 17 15 15 14 10
6 8 7 7 6 3 0 1 1 5 9 15 17 14 11 11 13 17 19 18 17 17 18 20 22 21 20 19 17 15 14 14 14 13 12 11 10 10 10 10 11 12 13 13 14 14 14 14 14 14 13 13 13 13 14 16 17 18 19 19 20 20 21 22 23 23 23 23 23 22 22 22 23 23 23 22 21 19 18 20 22 24 24 22 18 16 14
6 6 6 4 4 4 3 3 6 9 10 12 13 13 11 9 11 16 18 18 19 21 23 23 24 25 23 20 16 14 13 13 13 12 11 10 10 10 10 10 10 11 11 12 13 14 14 14 13 14 13 12 13 13 14 15 16 17 17 18 19 20 21 22 22 22 22 23 23 23 23 22 23 23 23 22 22 20 19 19 19 21 25 27 26 23 19
7 6 3 4 5 5 5 6 7 7 5 4 6 8 6 6 10 15 17 18 20 23 24 24 25 25 22 17 14 12 12 12 12 11 10 10 10 10 9 9 9 9 9 10 12 13 14 14 13 14 13 13 13 13 14 15 16 16 17 18 19 19 20 21 21 21 21 21 22 23 23 23 23 23 22 22 22 22 21 21 20 19 20 22 26 29 26
7 6 5 5 5 4 5 8 8 4 1 3 7 9 6 5 10 17 18 18 21 23 23 25 24 20 14 10 9 12 12 11 11 11 10 10 9 9 8 8 8 9 9 10 11 12 13 14 14 14 14 14 13 14 15 15 16 16 17 18 18 18 19 20 20 20 20 20 21 22 23 24 24 24 23 23 23 22 22 22 21 20 19 18 20 25 28
6 6 6 6 4 2 5 9 10 7 4 4 6 5 4 7 13 18 19 19 22 23 23 24 20 12 6 6 10 13 13 11 11 11 10 9 9 8 8 8 8 8 8 9 10 11 12 13 14 13 14 14 14 14 15 15 16 16 17 17 18 18 18 19 19 20 20 20 21 21 22 23 23 24 24 24 24 23 23 22 22 21 20 19 18 20 23
6 6 5 3 2 3 7 10 10 9 6 6 7 5 4 13 18 19 20 21 21 22 23 20 11 4 4 10 14 16 15 12 12 10 9 9 9 9 8 8 7 7 7 8 9 11 12 12 13 13 13 13 14 14 15 15 16 16 17 17 17 17 17 18 19 20 20 20 21 21 22 23 23 23 23 23 24 24 23 23 23 22 22 21 19 19 21
5 6 4 4 4 5 8 10 10 9 7 6 5 2 8 19 23 20 20 21 21 21 20 14 6 5 11 18 20 18 16 13 12 11 10 9 9 9 8 7 7 7 8 8 9 10 11 11 12 12 12 13 13 14 14 15 16 16 16 16 16 16 17 17 18 19 20 20 20 20 21 22 23 23 23 23 23 23 23 23 24 24 23 22 22 21 20
5 4 4 6 4 2 5 9 9 5 3 3 2 7 18 26 25 22 21 22 21 19 16 13 13 16 21 24 21 18 16 14 13 12 10 10 9 9 8 7 7 7 7 8 8 9 9 10 10 11 12 12 13 13 14 15 15 15 15 16 16 16 17 17 17 18 19 19 20 20 21 22 22 23 24 23 23 22 22 22 23 24 24 23 22 23 22
3 5 6 4 2 3 7 10 7 2 1 5 12 17 22 25 24 24 24 22 20 18 17 18 20 22 23 22 20 18 16 14 13 12 11 10 9 8 8 7 7 7 7 7 7 8 8 9 9 10 11 12 12 13 14 14 14 14 15 15 16 16 16 17 17 17 17 18 19 20 21 21 22 23 23 24 24 24 23 23 23 23 24 23 23 23 23
3 4 4 2 5 10 11 7 5 5 7 13 19 21 22 22 23 24 23 21 18 18 20 23 23 23 22 21 19 18 17 15 14 12 11 10 9 9 9 8 7 7 8 8 7 8 8 8 8 9 9 11 12 13 13 13 14 14 14 15 15 16 16 17 17 17 17 17 18 19 20 21 22 22 23 24 24 25 24 23 23 23 23 23 23 23 22
5 6 6 7 12 15 11 8 11 14 16 17 19 21 23 23 23 22 22 21 20 20 22 24 23 22 22 21 20 19 17 15 14 12 11 10 10 9 9 9 8 8 9 8 8 8 8 8 8 8 8 9 10 12 13 13 14 14 14 15 15 15 16 16 16 17 16 16 17 17 18 21 22 22 23 23 24 26 26 25 24 23 23 23 22 22 22
10 11 9 9 13 14 12 13 15 16 16 17 19 21 22 23 22 22 22 22 23 22 22 23 22 22 22 21 20 18 16 15 14 13 12 11 10 10 9 9 9 9 9 9 9 9 8 8 8 8 8 8 9 10 12 13 13 14 14 14 15 15 16 16 16 17 16 16 16 16 16 18 21 22 22 21 22 24 26 25 24 23 24 23 22 21 20
5 6 7 9 13 14 15 15 15 15 17 18 19 20 22 22 22 22 22 23 24 23 21 22 23 23 22 21 20 17 16 15 14 13 12 11 10 10 9 9 9 9 9 9 8 8 8 8 8 8 8 8 8 9 10 12 12 13 13 14 14 15 16 16 16 16 17 16 16 16 15 16 19 21 22 20 20 22 26 26 25 24 23 24 23 20 18
4 7 11 12 13 15 15 15 15 17 18 18 18 20 22 22 23 23 23 24 23 22 22 23 24 23 21 20 19 17 16 15 14 13 12 11 11 10 9 9 9 8 8 8 8 8 8 8 8 8 8 8 7 8 9 10 11 12 12 13 14 14 15 15 15 16 17 16 16 16 15 15 18 20 20 20 19 22 26 28 26 25 24 25 24 21 17
8 10 14 15 14 13 12 13 15 16 17 19 20 21 22 23 25 26 23 22 22 23 23 24 23 23 21 19 18 17 15 15 14 13 12 11 11 10 10 9 9 8 8 8 8 8 8 8 9 8 8 8 7 7 8 10 11 11 11 12 13 13 14 14 15 16 16 16 16 17 15 16 19 22 21 20 20 21 24 27 27 26 26 27 27 23 18
6 8 14 15 11 9 11 14 15 16 17 20 21 23 25 25 25 25 23 23 23 24 24 23 22 21 20 18 17 16 15 15 14 13 12 12 11 10 9 9 8 8 8 8 8 9 9 9 9 8 8 7 7 7 8 9 10 11 11 11 12 13 13 14 14 15 15 15 16 17 16 16 18 20 20 22 23 23 23 25 27 26 26 27 27 23 19
7 14 20 16 11 13 15 16 16 17 19 21 22 24 25 25 24 24 24 25 25 24 23 22 20 19 19 17 16 16 15 14 13 12 12 11 10 10 9 8 8 7 7 8 8 9 9 9 8 8 8 7 7 7 8 9 10 11 11 11 12 12 12 13 13 13 14 15 15 16 17 17 17 17 18 20 23 24 24 25 26 25 25 25 26 25 23
14 19 20 15 15 19 19 17 18 19 20 22 23 24 24 25 25 25 25 26 25 24 23 21 19 18 18 16 16 16 15 14 13 12 12 11 10 9 8 7 7 7 7 7 8 8 8 8 8 8 8 7 7 7 8 9 10 11 10 10 12 13 12 11 12 12 13 13 14 16 16 16 17 17 17 18 21 23 24 24 25 24 23 24 25 27 27
18 18 17 16 19 22 21 19 20 20 20 22 24 24 25 25 25 26 26 25 24 23 22 21 19 17 16 16 16 15 15 14 13 13 12 11 10 9 8 7 7 6 6 7 7 8 8 8 8 8 8 7 7 7 8 8 9 10 10 9 10 11 11 10 11 12 12 12 13 15 15 15 16 17 18 18 19 20 21 23 24 24 23 23 25 28 29
19 19 20 22 23 23 22 22 22 22 22 24 25 25 26 26 26 26 25 23 22 22 21 21 19 17 16 15 14 14 14 14 13 12 11 10 10 9 8 7 6 5 6 6 7 8 8 7 8 8 8 7 6 6 7 8 8 9 10 9 8 11 13 11 10 11 12 11 12 14 14 14 15 17 17 18 18 18 18 20 21 22 22 22 24 27 29
20 22 25 25 24 23 23 23 24 25 25 25 26 27 27 26 26 25 23 22 21 21 19 19 18 16 15 14 13 14 14 13 11 10 10 9 9 8 7 7 6 6 5 5 6 8 7 6 7 8 7 7 6 6 6 7 8 8 9 9 9 11 13 13 11 11 12 11 11 12 12 13 14 16 16 17 18 17 18 18 18 18 19 19 21 24 26
21 22 22 22 23 24 24 24 25 26 26 26 27 27 27 26 25 23 22 22 21 19 18 17 16 15 14 13 12 13 12 11 10 9 9 9 8 7 7 6 6 5 5 4 5 6 6 6 6 7 7 7 6 6 6 7 8 8 8 9 9 9 11 12 12 11 11 11 11 11 11 13 14 14 15 16 17 17 17 17 17 17 17 17 19 20 22
21 20 20 21 24 26 27 26 26 27 26 27 27 26 26 26 24 22 22 21 19 18 17 16 14 14 13 12 12 12 11 10 9 9 9 8 8 7 6 6 5 4 4 3 4 4 5 5 5 5 6 6 6 6 6 6 7 8 8 9 9 9 11 13 13 11 10 10 10 11 12 13 13 12 13 15 16 16 17 17 17 17 17 18 18 18 21
21 21 22 24 25 26 27 27 27 27 26 26 26 25 25 25 23 22 21 19 18 18 16 15 14 13 12 11 11 10 10 10 10 9 9 8 7 6 5 4 3 3 3 2 3 3 3 4 4 5 5 5 5 6 6 6 6 7 7 8 9 11 13 14 12 11 11 11 11 11 12 11 11 12 13 14 15 15 15 16 17 17 17 18 18 17 20
23 23 25 26 26 26 26 27 26 26 26 25 25 25 24 23 22 21 19 18 17 17 15 14 13 12 11 11 11 10 10 10 10 9 9 8 7 6 4 2 2 3 2 1 1 2 2 2 3 4 4 4 5 6 6 6 6 7 7 8 10 13 15 14 12 10 11 11 11 11 11 11 11 13 13 13 14 14 14 15 16 16 16 18 17 15 18
25 25 25 26 26 26 26 26 26 26 25 24 24 24 22 21 21 20 19 17 16 16 15 14 13 12 11 11 10 10 9 9 9 9 9 8 7 7 5 3 2 2 1 1 1 1 1 1 2 3 4 4 5 5 6 6 6 6 7 7 8 10 12 12 11 11 11 11 11 11 11 12 12 12 12 12 12 13 14 14 15 15 15 16 16 14 17
26 26 26 26 27 26 26 25 25 25 25 24 23 21 20 19 19 18 17 17 16 15 14 13 12 12 11 11 10 10 10 9 9 10 10 9 8 7 5 3 2 1 1 1 2 2 1 1 1 2 3 3 4 5 6 6 6 6 7 8 8 8 9 10 11 11 11 11 12 12 12 12 12 12 12 12 11 11 12 13 14 14 14 14 14 15 18
23 24 24 25 25 25 26 25 25 24 24 22 21 20 19 18 18 17 16 16 16 15 14 13 12 12 11 10 11 11 10 9 9 10 10 10 8 6 5 3 1 2 2 2 3 3 2 2 1 2 2 3 4 5 6 6 6 6 7 8 8 8 8 9 10 12 11 11 12 11 11 11 11 11 11 11 10 10 11 11 12 14 14 13 13 15 18
21 21 22 22 22 23 23 24 24 24 23 22 20 19 18 17 17 17 16 15 15 14 13 12 12 12 12 13 13 11 10 9 9 9 9 9 8 7 5 3 3 3 3 3 4 3 3 3 2 2 2 2 3 4 6 7 6 6 7 8 8 8 9 9 9 10 10 11 11 11 10 11 11 10 10 10 10 10 10 10 11 12 13 12 11 12 15
21 22 22 22 22 23 23 23 23 22 21 20 20 19 17 17 16 16 15 14 13 13 13 12 12 12 14 15 13 10 9 10 11 10 8 8 8 7 5 4 4 3 3 5 6 5 4 5 4 3 3 2 1 3 7 9 7 6 6 7 8 8 9 9 9 9 9 10 11 10 10 11 12 10 10 10 10 10 10 10 10 11 11 10 10 10 12
21 22 22 22 23 23 23 22 22 21 20 19 19 18 17 16 15 14 14 14 13 12 12 12 12 12 13 13 11 9 10 11 11 10 9 8 8 6 4 4 5 4 4 6 7 6 5 7 7 6 4 1 1 4 8 10 9 6 5 6 7 8 9 9 9 9 9 10 10 10 10 11 12 11 10 10 9 10 10 10 10 10 10 9 9 9 10
22 22 22 23 24 23 22 21 21 20 19 19 18 17 17 16 15 14 14 13 12 12 12 11 11 12 12 11 10 10 11 10 11 10 9 8 7 6 5 6 7 5 3 3 4 4 7 10 10 6 2 1 2 5 9 10 10 8 5 6 7 8 8 9 9 9 9 9 10 10 11 11 12 11 11 11 10 10 10 10 10 10 9 9 9 9 9
23 23 23 23 23 21 21 21 20 18 18 19 18 17 17 16 15 14 14 13 12 12 11 11 11 12 12 12 12 12 11 10 10 10 9 8 7 7 7 8 8 6 4 4 4 5 9 11 9 5 3 4 3 4 9 12 10 7 5 6 7 8 8 8 9 9 9 9 9 10 11 12 12 12 11 11 11 10 10 10 10 10 9 9 9 9 9
24 23 24 23 22 21 20 20 19 18 18 18 18 17 17 17 16 15 14 13 12 12 11 11 12 12 12 12 13 12 12 12 10 10 10 10 9 8 9 11 10 9 9 8 5 6 10 11 7 3 5 5 3 3 7 10 8 6 5 6 7 7 8 8 8 8 8 8 10 11 11 12 12 12 12 12 11 10 10 10 10 10 10 10 10 9 9
23 23 23 22 21 21 20 19 19 18 18 18 17 17 17 16 16 16 15 14 13 12 10 11 11 12 12 12 12 11 12 13 12 11 11 11 10 9 9 9 8 10 11 9 7 8 12 11 6 4 5 5 5 7 8 8 6 4 5 6 6 7 8 8 8 8 9 9 10 11 11 11 12 12 12 12 12 11 10 10 10 9 10 10 10 9 9
24 24 23 22 21 20 19 18 18 18 17 17 16 16 17 17 16 16 15 14 14 12 11 10 12 12 11 11 12 12 12 12 12 11 11 12 12 11 9 6 7 11 10 8 6 8 10 8 6 6 5 4 6 11 11 7 4 4 5 5 6 7 7 7 8 9 9 10 11 11 11 11 12 12 11 12 12 12 11 11 10 10 9 10 10 9 9
24 23 23 22 20 19 18 18 18 18 17 17 16 16 17 17 16 16 15 15 14 13 12 11 12 12 11 10 12 13 13 12 12 12 11 12 12 12 10 6 6 8 10 7 5 6 7 6 7 9 9 7 8 11 10 6 4 5 5 5 6 7 7 7 9 9 10 10 11 11 11 12 12 12 12 12 12 12 11 11 11 10 10 10 10 9 9
24 23 22 21 20 19 19 18 18 17 17 16 16 16 16 17 16 16 16 15 15 14 13 12 12 12 12 12 12 13 13 13 13 12 12 12 12 13 13 10 8 9 11 9 6 6 7 8 10 13 14 12 11 10 8 5 6 7 6 6 6 7 8 9 9 9 10 10 10 11 11 12 12 12 12 12 12 12 11 11 11 11 11 10 9 9 9
24 23 22 20 20 19 18 17 17 17 17 16 16 15 16 16 16 16 16 15 15 14 14 13 12 12 13 13 13 13 13 13 12 12 12 12 11 13 14 13 12 12 12 10 7 7 8 10 13 15 15 13 11 9 7 6 7 7 7 7 8 8 9 10 10 10 10 10 10 11 11 12 12 12 12 12 12 12 11 11 11 11 10 10 9 9 9
24 23 22 21 20 19 18 17 16 16 16 16 17 16 16 16 16 16 17 16 16 15 14 13 13 13 13 13 13 13 13 13 13 13 13 11 9 9 12 14 13 12 11 9 6 7 9 12 14 15 15 13 11 8 7 7 7 8 9 9 9 10 10 11 11 11 11 11 11 11 12 11 12 12 12 12 12 13 12 11 11 11 10 10 10 9 9
23 22 22 21 20 19 18 17 16 16 17 18 18 17 16 16 17 17 17 17 16 15 14 14 14 14 14 13 13 13 13 13 13 13 14 12 11 10 12 13 14 14 13 11 8 8 11 14 16 16 15 13 10 8 7 7 8 9 10 10 10 11 11 11 12 12 12 12 12 12 12 12 12 12 12 12 12 12 11 11 12 11 10 10 10 10 9
23 22 22 21 20 19 19 18 18 18 18 18 18 17 16 17 17 18 18 17 16 15 15 15 15 15 14 14 14 13 13 13 12 13 13 14 13 11 11 13 14 14 13 11 10 11 13 15 16 15 13 12 10 8 8 8 9 10 11 11 12 12 12 12 13 13 13 13 13 13 13 13 13 13 12 12 12 12 11 12 12 11 11 11 11 11 10
24 23 22 21 21 21 21 20 19 19 19 19 18 17 16 16 18 18 18 18 17 17 16 15 16 16 15 15 15 14 13 13 13 11 10 11 12 12 11 12 14 14 11 10 10 11 11 12 12 13 13 12 11 9 9 10 11 11 12 12 13 13 13 14 14 14 14 14 14 14 13 13 13 13 13 13 12 12 12 12 12 12 13 13 12 10 9
24 23 23 23 23 22 22 21 20 20 20 19 18 17 17 17 19 19 19 18 18 17 16 16 16 16 16 16 15 15 14 14 14 12 10 10 11 12 11 10 11 12 11 9 9 10 11 11 11 12 13 13 11 10 10 10 11 11 12 12 13 13 14 14 15 15 15 15 14 14 13 13 13 13 14 13 13 13 13 12 12 13 13 12 10 9 9
25 25 24 24 23 22 21 21 21 20 19 19 18 18 18 18 19 19 19 19 18 18 17 17 17 16 16 16 16 15 15 14 14 14 14 13 12 12 11 11 10 12 12 11 9 9 11 12 11 10 11 11 10 11 11 11 12 12 12 13 13 14 15 14 14 14 14 14 14 14 14 14 14 14 14 14 14 14 13 13 13 13 12 10 9 9 10
25 25 24 23 22 22 21 21 21 21 20 19 19 19 19 19 19 19 20 20 19 18 18 17 17 17 17 17 16 16 15 15 15 14 14 13 12 12 11 11 10 10 10 10 9 9 10 11 9 8 8 9 10 11 12 12 12 12 13 13 13 13 13 14 13 12 12 13 13 13 13 14 14 14 14 14 14 14 14 14 14 13 12 10 10 10 11
Wind_Direction
134 90 145 189 185 195 199 189 197 211 206 210 221 218 254 327 260 147 142 142 139 146 151 141 137 136 130 128 128 125 125 123 118 114 108 100 91 81 74 66 60 56 51 46 44 41 37 34 32 30 29 26 24 24 22 21 21 20 18 16 15 14 12 10 9 7 4 3 2 359 357 354 350 343 338 333 325 318 312 309 312 314 316 328 349 352 307
129 116 93 152 150 120 98 134 163 196 193 180 180 154 110 91 121 136 139 133 128 138 141 132 132 131 126 127 126 126 126 123 119 116 109 103 96 85 75 66 58 52 49 45 42 40 36 32 31 29 27 25 23 22 21 20 20 20 19 18 17 16 14 12 10 8 7 5 3 2 1 359 355 352 348 343 335 327 323 318 313 315 318 322 341 352 325
123 131 119 130 136 106 81 75 93 111 117 109 98 98 104 111 120 127 127 121 116 122 123 123 128 128 126 127 126 126 125 122 120 117 109 102 94 81 72 67 59 51 47 43 39 37 34 31 29 27 25 24 22 21 20 19 19 20 20 19 18 16 15 13 11 10 9 7 5 4 4 1 359 357 356 355 350 342 336 333 322 315 317 321 336 3 317
124 135 136 138 126 102 82 59 49 69 89 85 85 91 100 117 125 126 125 123 125 129 125 125 128 128 127 126 126 125 124 122 120 114 107 101 90 78 72 65 58 52 46 41 38 35 32 31 29 26 24 22 21 20 19 19 19 19 21 20 18 17 15 13 12 12 10 8 7 5 4 3 2 1 0 2 4 0 354 349 340 329 323 323 329 340 309
124 132 143 149 148 134 104 56 10 2 80 96 94 86 86 109 127 135 138 138 141 139 133 130 130 129 127 126 127 126 125 123 119 113 109 102 90 81 74 66 58 52 46 40 38 34 31 31 29 27 24 22 23 22 18 19 21 21 22 21 18 17 15 13 13 12 11 9 8 6 5 4 3 3 3 5 9 11 10 7 0 351 342 336 333 331 328
138 150 163 176 178 167 128 58 333 336 65 102 101 90 84 90 94 92 105 125 137 140 136 133 131 130 127 125 125 125 125 124 118 113 109 101 93 84 74 68 61 53 46 42 38 34 31 30 29 29 27 25 26 25 18 19 23 23 22 21 19 17 15 13 13 12 10 9 8 6 5 5 5 5 5 5 6 9 12 13 13 10 3 355 346 340 337
139 151 177 199 185 148 115 232 38 41 74 95 92 79 71 78 89 97 110 126 138 136 130 128 126 124 121 120 120 121 122 121 117 113 108 101 95 85 75 71 63 53 45 41 38 35 32 31 30 29 29 27 27 27 23 22 22 21 21 20 18 17 16 14 12 11 10 9 8 7 5 6 7 6 6 6 5 5 6 9 14 18 17 14 6 357 349
140 159 188 193 133 106 117 130 109 104 113 116 98 71 57 75 104 116 122 129 131 127 125 124 122 121 118 113 113 118 120 117 116 113 108 101 94 86 81 75 66 57 46 41 40 37 34 34 33 31 30 30 30 29 27 25 24 23 22 20 19 17 16 14 12 11 10 9 8 8 6 6 6 6 6 6 5 5 6 6 8 14 19 21 19 15 8
161 160 137 115 130 146 152 155 151 135 127 137 115 89 70 83 112 125 129 128 128 127 126 125 125 123 116 108 110 119 121 118 116 112 108 103 95 90 86 78 70 64 56 50 46 41 39 37 36 35 34 33 34 32 30 28 26 25 23 21 19 17 15 14 12 10 10 9 9 9 8 8 8 6 6 5 5 5 6 6 6 7 11 16 20 21 19
163 146 124 139 165 181 170 173 182 179 73 79 108 108 105 115 128 134 135 132 132 133 131 132 135 129 115 108 122 131 128 124 121 115 111 106 98 93 90 82 75 70 64 58 50 44 43 41 39 39 38 38 38 36 33 30 27 26 24 22 20 17 16 14 12 11 10 10 10 10 9 9 9 8 8 7 6 6 5 5 6 6 5 6 11 17 20
164 170 179 176 164 118 144 161 171 180 186 164 148 140 138 146 147 145 141 139 139 139 139 143 146 140 119 124 142 144 139 131 125 120 114 109 102 96 95 89 83 77 69 61 53 46 44 42 40 40 40 40 41 38 34 30 28 26 24 20 18 16 15 14 13 13 12 12 12 12 10 10 9 9 8 8 8 8 8 7 6 5 6 5 4 9 14
174 186 181 143 78 86 129 146 156 163 171 186 205 222 167 155 157 152 147 144 142 142 146 150 155 154 142 146 149 148 142 132 127 123 117 111 104 99 99 94 86 81 72 63 57 50 45 43 41 40 40 40 39 36 33 30 28 26 22 18 17 15 14 14 14 14 14 14 15 15 13 12 11 10 8 8 8 9 9 10 9 7 8 8 6 5 7
176 190 159 100 80 103 129 142 149 150 159 189 222 224 137 148 153 150 147 145 142 143 148 148 127 90 123 138 142 142 139 133 129 125 118 113 105 100 99 93 87 82 72 65 61 53 47 45 42 40 40 39 37 35 32 29 26 23 19 17 16 16 15 15 15 14 15 15 16 16 15 14 13 13 11 9 8 9 8 8 9 9 9 10 10 8 6
193 185 131 111 98 98 142 141 129 128 175 195 131 109 131 143 146 145 144 142 139 139 138 130 116 110 120 130 135 137 138 134 130 126 121 115 108 101 97 90 87 84 75 69 64 55 49 46 43 41 40 39 37 34 31 28 24 20 18 17 16 16 17 16 15 15 15 15 16 15 15 15 14 14 14 12 11 10 9 8 8 9 10 10 10 11 11
205 163 131 125 119 149 167 153 124 56 321 124 117 122 132 138 139 139 140 139 138 133 126 124 124 122 125 130 133 135 135 132 128 126 121 115 107 102 98 91 87 87 83 75 66 57 51 46 42 40 38 38 37 33 29 26 22 19 19 18 17 17 18 17 16 16 14 14 16 16 15 15 15 14 14 14 14 12 11 10 8 8 9 10 9 10 11
279 166 130 76 104 136 157 158 119 97 108 123 129 131 133 137 138 138 138 137 136 133 128 127 128 128 129 132 133 134 133 131 129 125 120 116 108 101 97 91 88 89 86 79 70 61 52 45 42 39 36 36 36 32 27 24 22 20 19 18 18 18 18 17 16 15 15 14 15 17 17 17 17 16 15 14 15 14 13 12 11 8 7 8 9 9 10
41 78 82 82 103 121 127 108 106 112 116 125 133 133 134 138 140 139 136 134 134 134 131 130 130 131 133 133 134 134 132 131 130 126 121 117 110 103 98 92 92 93 88 81 74 64 55 47 42 37 35 35 36 33 28 23 21 22 20 18 19 19 18 18 16 15 15 14 13 16 18 19 18 16 14 14 14 14 14 13 13 10 8 7 7 7 9
87 70 71 95 109 116 115 108 111 115 118 127 134 133 135 138 139 138 136 134 135 136 134 132 133 134 135 135 134 134 132 131 131 126 121 117 111 107 102 95 95 94 89 83 75 65 57 49 42 37 35 37 38 35 29 24 23 23 21 20 21 21 19 18 17 16 16 15 14 13 14 17 17 15 13 12 12 13 13 13 12 11 9 7 6 4 6
134 82 92 115 116 116 115 113 114 115 118 127 133 134 135 137 138 138 137 135 136 137 136 136 135 135 137 136 135 134 133 131 129 126 122 117 113 110 105 99 98 95 89 82 72 63 55 44 37 35 34 37 41 37 32 28 25 25 25 23 23 22 21 19 18 18 18 16 15 13 11 12 13 13 14 12 7 8 11 12 12 12 10 9 7 4 3
104 111 128 126 113 112 117 117 119 120 119 124 130 133 135 135 136 137 136 136 137 137 138 137 136 136 137 137 135 135 133 131 129 126 122 119 116 113 108 102 99 93 85 77 66 57 50 38 32 32 34 38 43 39 35 31 26 26 28 26 25 23 22 21 20 19 18 17 15 13 10 8 8 10 14 15 9 5 8 10 11 11 11 10 8 6 3
100 118 137 133 117 116 125 124 124 125 125 127 131 133 134 135 135 136 137 137 138 138 138 139 138 138 138 137 136 135 132 130 128 124 123 123 120 116 111 104 98 91 81 72 61 52 44 34 31 35 37 39 43 41 37 33 28 28 29 28 27 25 23 23 22 19 18 17 15 14 11 6 3 4 9 14 13 7 5 8 9 9 8 8 7 8 8
140 145 154 148 131 127 136 134 132 132 132 132 133 134 136 137 137 138 137 137 137 138 140 141 140 137 136 136 136 132 128 128 127 125 126 127 124 121 117 108 100 90 76 66 57 48 41 36 36 39 40 41 45 44 39 35 32 31 29 27 28 26 23 21 21 19 18 17 14 14 13 8 3 2 3 6 7 5 4 5 6 6 6 7 5 5 8
143 151 160 156 134 130 137 137 135 134 135 137 137 137 139 140 139 138 137 137 138 140 143 143 139 135 136 136 133 130 127 127 128 127 128 128 127 127 124 114 104 92 74 62 54 44 39 39 39 39 41 45 50 49 42 39 36 33 30 30 28 24 20 19 18 15 14 14 12 11 10 8 6 5 2 359 359 0 1 2 2 2 3 5 2 360 360
125 147 158 151 133 134 138 137 136 137 139 139 138 139 141 141 140 139 138 138 140 141 141 140 137 136 136 134 131 130 128 128 128 126 125 125 125 124 122 116 107 93 73 60 51 43 41 42 40 40 44 49 53 51 43 39 35 31 30 32 28 22 16 13 13 10 8 8 9 7 6 6 5 5 3 359 355 356 357 359 359 358 359 2 0 356 353
131 140 142 135 133 135 135 135 137 140 140 139 139 140 141 140 140 140 140 140 141 140 140 139 139 138 135 132 132 132 129 128 128 126 124 123 120 118 117 114 107 96 78 62 52 46 44 41 38 42 47 50 54 52 43 37 34 29 26 26 23 17 11 5 5 5 2 2 3 3 2 4 4 3 3 2 358 355 355 356 356 355 355 358 358 355 352
131 130 130 130 129 130 132 134 137 139 140 139 139 139 140 141 141 141 141 141 141 142 142 141 140 138 135 134 133 132 131 131 130 129 128 124 119 116 114 111 107 100 87 68 51 47 46 42 40 44 47 48 51 49 40 35 32 25 21 16 9 5 5 4 360 357 355 354 357 358 359 360 1 2 3 3 0 358 356 356 355 353 352 353 354 354 352
131 133 134 131 129 132 136 136 136 138 139 138 137 138 140 141 141 141 140 140 141 141 142 141 141 139 136 133 130 130 133 134 133 132 130 126 121 119 115 112 109 101 92 74 50 44 44 43 43 44 45 45 44 42 39 34 26 19 17 13 5 0 0 359 353 347 346 348 352 354 356 358 358 359 1 0 0 360 358 356 354 352 351 350 349 351 351
134 138 139 135 134 137 138 136 136 138 138 138 139 140 141 142 143 143 143 143 143 143 142 141 141 140 137 135 133 133 136 137 136 136 135 131 128 125 119 114 110 101 93 80 55 45 44 46 46 43 42 43 38 34 35 29 21 17 12 6 5 1 353 350 346 341 341 345 348 351 356 357 355 355 357 358 359 359 357 356 354 351 351 350 346 347 351
138 139 137 134 134 136 136 135 136 137 139 140 141 142 144 145 145 145 145 145 145 145 144 143 143 140 140 141 141 141 145 148 145 144 142 139 136 131 124 119 114 108 103 87 58 44 42 44 43 39 38 38 32 26 25 21 17 15 8 3 4 358 348 347 349 347 347 349 347 345 352 354 352 353 356 357 358 357 357 357 356 352 350 351 349 349 353
139 137 134 134 137 138 138 138 140 140 142 145 145 146 148 148 148 147 147 147 147 146 145 146 146 143 144 149 150 150 155 155 152 149 148 146 142 137 130 130 135 138 130 100 55 42 39 39 39 35 30 28 23 17 15 13 10 6 5 2 353 340 339 349 359 357 355 354 346 341 346 350 352 356 357 355 355 358 358 359 358 354 353 354 354 353 356
138 137 136 137 140 142 141 142 144 145 147 148 149 150 151 150 150 150 149 149 150 148 148 151 152 150 151 156 157 156 156 156 155 153 148 146 148 144 132 125 144 147 136 109 37 25 25 26 29 27 21 20 19 12 8 9 7 360 358 359 346 335 339 355 7 2 354 353 349 345 347 350 349 352 355 355 356 359 359 358 358 356 355 356 357 357 358
139 139 140 143 145 145 145 146 147 148 150 152 152 152 153 153 152 151 151 153 153 152 153 157 159 158 160 161 160 159 158 157 155 153 154 162 170 164 147 128 141 156 154 210 243 286 353 5 12 17 16 16 15 9 5 7 7 357 352 353 347 338 341 352 2 360 353 351 350 346 346 348 347 349 354 358 358 358 357 356 357 356 355 357 357 353 353
145 147 150 152 151 150 150 151 151 151 152 154 154 154 155 154 152 153 155 157 157 157 161 165 166 166 168 167 164 164 161 156 157 166 177 185 185 173 161 151 158 186 224 241 236 245 261 290 336 358 11 10 6 8 10 8 4 356 351 347 341 338 338 340 348 352 348 345 345 343 342 345 346 347 352 354 354 355 357 356 356 355 352 354 354 348 347
153 153 154 154 153 152 152 152 152 153 154 155 155 155 155 155 154 156 160 162 162 163 169 172 172 173 173 169 169 173 170 165 173 185 188 187 183 178 176 178 189 217 242 243 234 235 235 238 293 335 349 347 346 354 3 4 357 349 347 345 341 338 335 332 338 345 343 341 342 341 342 345 345 345 347 347 348 352 354 353 355 354 350 349 352 348 347
154 152 151 152 152 153 152 152 153 154 155 155 157 156 156 158 160 162 165 169 170 171 176 179 178 180 181 178 182 191 190 181 186 192 187 182 183 181 180 192 217 234 250 241 224 224 233 234 249 293 316 323 332 335 342 354 358 343 335 339 341 338 333 329 331 336 338 340 341 341 342 342 341 339 340 341 343 349 351 350 353 354 349 346 350 352 350
154 153 153 153 154 153 153 153 154 154 154 157 159 158 159 164 167 165 166 173 175 177 181 181 177 182 189 191 196 207 201 189 190 194 189 184 184 183 187 207 219 238 262 241 219 209 220 237 257 295 319 330 333 307 317 338 355 348 330 332 335 334 333 332 330 329 332 336 338 339 338 337 336 335 339 342 344 348 351 350 350 351 350 347 348 353 354
157 156 155 154 154 154 154 154 155 155 157 160 163 163 164 168 169 165 168 176 178 175 176 176 174 180 191 196 199 201 196 192 193 194 188 182 182 186 194 205 209 232 264 243 217 200 213 242 271 308 334 342 297 289 302 325 348 356 340 332 330 330 332 333 330 329 331 333 334 336 337 337 337 337 340 343 345 348 351 351 348 349 351 349 348 350 351
157 157 156 155 155 156 156 157 159 161 162 164 167 168 169 170 169 167 171 177 175 170 171 174 172 175 182 187 191 193 193 191 190 190 187 185 190 198 208 214 218 232 244 218 202 207 230 251 278 308 321 253 266 280 293 316 342 356 347 329 326 328 330 330 328 328 328 330 334 336 336 337 337 336 337 340 343 345 346 347 348 350 350 348 348 350 348
158 158 157 157 158 159 159 161 164 166 167 168 170 171 173 173 172 172 174 175 172 171 174 175 172 173 176 181 188 193 194 193 193 194 193 197 205 214 223 230 236 241 235 226 233 245 252 263 283 295 257 249 272 283 290 307 335 2 356 329 325 329 328 327 328 327 326 328 332 334 334 336 337 336 334 335 338 340 343 345 347 350 350 348 348 348 345
160 160 161 162 164 164 164 165 168 170 171 173 174 175 177 178 178 179 180 178 174 175 179 180 181 183 185 186 191 197 199 201 204 205 205 211 219 226 236 244 243 237 237 244 244 241 253 268 280 258 239 252 254 259 286 308 337 7 354 326 328 334 332 329 329 330 329 331 332 332 333 336 336 334 333 333 334 335 339 342 344 345 345 347 347 345 343
164 163 164 166 167 167 168 170 171 173 176 179 179 180 181 183 185 185 185 184 181 181 184 188 191 194 196 198 202 204 203 202 205 209 214 218 217 222 239 247 225 209 224 246 248 239 251 265 264 235 242 255 250 259 288 317 340 341 325 324 332 336 334 332 332 333 334 336 335 333 334 335 334 332 332 333 332 333 335 337 340 341 341 343 344 343 341
168 167 168 169 170 172 173 174 176 179 182 184 186 186 186 188 190 190 190 190 191 190 192 196 200 203 205 207 207 208 208 208 209 212 217 218 216 222 237 234 192 194 223 256 261 247 253 261 245 227 227 231 253 272 293 320 329 303 304 322 333 333 334 337 337 335 336 338 337 335 335 335 334 333 333 331 332 334 334 334 335 337 338 339 340 340 341
171 171 172 173 174 175 176 177 178 181 183 184 187 188 188 189 192 193 193 195 196 196 199 205 208 210 213 211 207 209 212 214 216 218 220 220 224 232 240 232 207 221 248 268 256 231 239 245 235 229 227 231 259 281 297 312 305 294 297 308 320 328 334 337 337 337 337 337 337 338 339 338 337 335 335 334 334 334 334 334 335 335 334 334 334 334 337
175 175 177 178 178 179 181 181 182 183 184 184 186 189 191 193 194 195 196 197 199 201 205 208 209 209 213 214 212 213 214 214 217 220 221 223 229 233 230 223 225 243 259 266 250 229 235 244 241 237 240 250 271 290 300 295 284 287 291 299 310 320 324 327 331 334 333 333 334 336 337 337 337 336 337 337 336 335 334 335 335 333 329 330 331 331 333
179 181 182 182 182 183 185 186 186 187 188 188 188 192 196 197 198 198 199 201 203 204 208 211 211 210 211 212 213 214 215 216 217 219 221 228 237 233 220 213 222 242 256 258 243 227 237 246 245 245 251 261 274 288 296 288 281 285 292 297 303 308 312 315 320 323 324 325 328 329 331 332 333 335 336 335 335 335 333 333 334 333 330 329 329 327 326
183 185 186 186 187 188 189 189 189 191 193 194 195 197 200 201 202 203 203 205 207 209 211 214 215 212 209 209 210 213 216 220 223 223 222 229 238 226 207 200 208 229 249 257 243 229 239 247 249 253 259 264 268 278 286 281 277 284 291 293 297 302 305 307 308 310 312 314 315 318 321 323 324 327 330 330 331 332 333 332 333 333 331 331 330 326 322
186 187 188 189 190 191 191 192 194 195 198 200 201 202 203 205 206 206 205 207 210 212 213 215 215 214 212 211 213 215 217 220 225 226 224 227 237 242 231 219 219 232 247 252 240 227 233 243 250 255 257 255 257 268 276 272 274 283 288 289 292 297 299 301 303 304 304 305 307 309 312 313 315 318 321 322 325 329 331 332 333 333 332 332 329 326 323
189 190 190 191 193 194 195 198 201 201 202 204 205 205 205 206 207 207 207 208 210 213 215 215 215 214 214 214 216 217 217 219 223 226 222 220 228 241 245 240 240 246 249 243 232 226 231 239 246 250 250 247 250 258 264 266 273 282 285 286 289 292 294 297 300 301 300 300 301 302 303 305 308 309 311 314 318 321 323 326 328 330 330 330 326 322 320
191 192 192 194 197 199 201 204 206 206 205 206 207 207 206 206 207 208 208 209 211 214 216 215 214 215 215 216 218 220 220 222 226 228 218 210 216 226 235 242 248 250 245 234 234 240 243 243 245 247 245 244 247 253 262 270 276 279 282 284 286 288 290 291 292 292 295 297 297 295 296 298 301 302 304 307 310 312 314 318 320 322 325 330 332 327 322
191 193 195 197 200 203 205 206 206 206 206 208 210 210 208 207 207 209 210 210 212 214 215 216 216 217 218 219 220 221 222 224 227 227 221 215 218 223 226 234 245 248 237 223 226 240 251 256 257 251 245 243 246 252 260 267 272 277 281 284 284 286 288 289 287 288 293 296 295 292 290 290 293 297 298 299 300 302 305 308 311 314 320 326 329 326 323
193 196 198 200 203 205 206 206 206 207 208 210 211 211 209 208 209 211 211 211 213 214 216 217 218 218 219 220 222 223 223 224 224 224 225 227 227 222 215 216 230 244 244 232 222 232 250 259 257 248 242 243 248 253 259 265 270 274 279 284 286 287 288 289 288 289 291 291 289 287 286 287 290 293 293 292 294 296 297 299 302 306 311 316 317 316 317
195 199 201 203 204 206 207 207 208 210 211 212 212 212 211 210 211 213 212 211 213 215 217 218 219 219 218 219 220 221 222 221 220 220 222 224 224 222 220 219 224 237 243 234 219 224 238 245 244 243 245 246 246 250 259 270 275 277 280 284 286 286 287 288 289 287 285 284 284 283 283 284 286 288 288 288 290 291 291 292 295 298 302 304 305 304 307